Measurements were made at the meteorological tower in Juelich (50.90 N / 6.40 E) at an altitude of 100 m
"Instrument: Fast Greenhouse Gas Analyzer (FGGA), Los Gatos Inc."
Responsible PI: Dr. Marc von Hobe; Forschungszentrum Juelich GmbH; IEK-7; email: m.von.hobe@fz-juelich.de
NaN or negative numbers are fill values (i.e. no valid measurements were made at that time)
Uncertainties are given as the 1-sigma standard deviation over each 10 minute intervals. In each interval ~600 individual measurements are carried out so that the standard error of the mean is approximately sigma/sqrt(600).
time_utc,CO2_ppm,stdev_CO2_ppm,CH4_ppm,stdev_CH4_ppm,H2O_ppm,stdev_H2O_ppm
"2016-12-01 00:05:00 000",424.392,0.998673,2.05441,0.00519415,5906.75,116.507
"2016-12-01 00:15:00 000",423.899,1.00636,2.05635,0.00499392,5913.20,115.341
"2016-12-01 00:25:00 000",422.985,1.03441,2.05998,0.00487362,5814.46,111.854
"2016-12-01 00:35:00 000",422.741,0.979261,2.06349,0.00514458,5884.50,119.834
"2016-12-01 00:45:00 000",423.248,1.00071,2.06512,0.00489214,5886.17,123.694
"2016-12-01 00:55:00 000",424.859,1.01721,2.06251,0.00514395,5899.74,111.512
"2016-12-01 01:05:00 000",425.145,0.925933,2.06189,0.00465349,5931.05,119.540
"2016-12-01 01:15:00 000",424.616,0.917686,2.05752,0.00480685,6055.66,110.231
"2016-12-01 01:25:00 000",424.632,0.915449,2.05903,0.00477940,6038.41,103.321
"2016-12-01 01:35:00 000",425.054,0.953088,2.06500,0.00509577,6039.92,105.731
"2016-12-01 01:45:00 000",425.276,0.889364,2.06932,0.00477992,6049.01,114.251
"2016-12-01 01:55:00 000",425.263,0.958953,2.06695,0.00477804,6135.22,110.638
"2016-12-01 02:05:00 000",425.664,0.992512,2.06641,0.00517667,6076.01,109.614
"2016-12-01 02:15:00 000",425.660,0.892676,2.06361,0.00468781,5985.31,107.983
"2016-12-01 02:25:00 000",425.292,0.880966,2.06047,0.00477504,5982.98,105.144
"2016-12-01 02:35:00 000",424.720,0.992495,2.05606,0.00490004,5990.93,109.544
"2016-12-01 02:45:00 000",425.016,0.969368,2.05518,0.00439085,5987.00,108.819
"2016-12-01 02:55:00 000",425.231,0.955400,2.05586,0.00451826,6043.03,105.818
"2016-12-01 03:05:00 000",424.699,0.975381,2.05236,0.00459723,6052.04,111.648
"2016-12-01 03:15:00 000",425.390,0.973448,2.05679,0.00528635,5995.04,106.919
"2016-12-01 03:25:00 000",425.336,0.935428,2.06133,0.00471918,6046.13,112.484
"2016-12-01 03:35:00 000",425.310,0.889544,2.06272,0.00476863,6004.91,111.869
"2016-12-01 03:45:00 000",425.384,0.965420,2.06029,0.00460160,5962.25,109.819
"2016-12-01 03:55:00 000",425.423,0.955365,2.06196,0.00520367,5991.38,111.087
"2016-12-01 04:05:00 000",425.700,0.985573,2.06329,0.00496901,5890.89,128.667
"2016-12-01 04:15:00 000",425.241,1.00503,2.06450,0.00509755,5864.30,110.559
"2016-12-01 04:25:00 000",424.651,1.06856,2.06931,0.00440413,5923.43,107.419
"2016-12-01 04:35:00 000",425.054,1.15821,2.07101,0.00498167,5925.18,115.401
"2016-12-01 04:45:00 000",425.519,0.942477,2.07134,0.00493106,5955.05,106.715
"2016-12-01 04:55:00 000",425.750,1.05590,2.07093,0.00507839,6056.05,122.442
"2016-12-01 05:05:00 000",425.295,0.952023,2.07175,0.00498326,6099.69,120.451
"2016-12-01 05:15:00 000",426.381,1.04239,2.06337,0.00578938,6123.96,112.539
"2016-12-01 05:25:00 000",426.058,1.05132,2.05717,0.00484963,6055.54,109.521
"2016-12-01 05:35:00 000",426.170,1.03196,2.05698,0.00490941,6057.28,109.482
"2016-12-01 05:45:00 000",426.949,0.982921,2.05527,0.00488550,6079.18,109.709
"2016-12-01 05:55:00 000",427.064,0.977239,2.05336,0.00476858,6136.38,110.502
"2016-12-01 06:05:00 000",426.709,0.976210,2.05356,0.00472453,6172.52,107.214
"2016-12-01 06:15:00 000",426.982,1.00811,2.05398,0.00464811,6175.27,107.990
"2016-12-01 06:25:00 000",427.313,1.00048,2.05377,0.00515598,6201.43,110.102
"2016-12-01 06:35:00 000",427.776,1.17462,2.05183,0.00504031,6205.55,113.770
"2016-12-01 06:45:00 000",428.111,1.14147,2.05385,0.00513170,6287.22,117.122
"2016-12-01 06:55:00 000",427.796,1.12688,2.05268,0.00511471,6382.66,113.563
"2016-12-01 07:05:00 000",428.096,1.14865,2.06179,0.00577110,6378.29,119.356
"2016-12-01 07:15:00 000",428.366,1.16169,2.05606,0.00538409,6376.06,125.604
"2016-12-01 07:25:00 000",427.832,1.11598,2.05444,0.00512247,6403.78,118.287
"2016-12-01 07:35:00 000",428.088,1.01570,2.05555,0.00514962,6430.69,123.265
"2016-12-01 07:45:00 000",427.189,1.29795,2.06336,0.00927398,6390.98,110.739
"2016-12-01 07:55:00 000",425.879,1.09024,2.06338,0.0113571,6562.00,111.923
"2016-12-01 08:05:00 000",424.397,1.09143,2.04398,0.00731189,6655.24,106.707
"2016-12-01 08:15:00 000",424.329,1.03995,2.04879,0.00753382,6586.42,115.582
"2016-12-01 08:25:00 000",424.175,1.01932,2.07744,0.0282548,6521.87,109.481
"2016-12-01 08:35:00 000",424.184,1.01330,2.09750,0.0427051,6544.04,101.548
"2016-12-01 08:45:00 000",424.583,0.913284,2.04718,0.00842370,6690.63,118.382
"2016-12-01 08:55:00 000",424.638,1.39880,2.05635,0.0136023,6793.54,113.376
"2016-12-01 09:05:00 000",423.225,0.965184,2.04146,0.00676310,6738.77,113.117
"2016-12-01 09:15:00 000",424.749,1.12176,2.09137,0.0248604,6809.46,107.660
"2016-12-01 09:25:00 000",425.829,1.05048,2.15217,0.0321363,6800.62,108.213
"2016-12-01 09:35:00 000",426.005,0.977680,2.15909,0.0286571,6830.92,105.985
"2016-12-01 09:45:00 000",426.020,1.01892,2.12053,0.0489665,6931.21,106.401
"2016-12-01 09:55:00 000",425.674,1.01390,2.04081,0.00867863,6941.29,108.517
"2016-12-01 10:05:00 000",424.398,1.09578,2.03160,0.00508262,7015.36,109.032
"2016-12-01 10:15:00 000",423.883,1.01109,2.03519,0.00570073,7047.92,133.414
"2016-12-01 10:25:00 000",423.306,1.06575,2.03992,0.00476901,7059.88,118.172
"2016-12-01 10:35:00 000",424.368,0.940634,2.03911,0.00457445,7142.63,136.859
"2016-12-01 10:45:00 000",425.242,1.07346,2.03949,0.00496836,7205.67,130.485
"2016-12-01 10:55:00 000",425.637,1.16524,2.03959,0.00541182,7251.24,122.952
"2016-12-01 11:05:00 000",426.212,1.02263,2.04092,0.00484718,7355.73,116.297
"2016-12-01 11:15:00 000",426.287,0.959029,2.04357,0.00491121,7409.76,126.171
"2016-12-01 11:25:00 000",426.371,0.955219,2.04683,0.00496947,7442.30,120.668
"2016-12-01 11:35:00 000",424.701,1.30908,2.04738,0.00501476,7466.07,127.133
"2016-12-01 11:45:00 000",424.983,1.03886,2.06555,0.0161841,7468.87,125.266
"2016-12-01 11:55:00 000",424.783,0.962817,2.13545,0.0240913,7502.86,120.810
"2016-12-01 12:05:00 000",425.445,1.00557,2.16217,0.0301307,7462.85,127.763
"2016-12-01 12:15:00 000",425.485,0.937063,2.15246,0.0225270,7378.79,130.612
"2016-12-01 12:25:00 000",425.584,1.00540,2.14091,0.0204262,7377.51,136.941
"2016-12-01 12:35:00 000",425.433,0.978236,2.14945,0.0215800,7350.91,138.338
"2016-12-01 12:45:00 000",424.079,1.01620,2.14190,0.0160755,7332.32,130.009
"2016-12-01 12:55:00 000",423.690,1.12324,2.10779,0.0230335,7348.87,140.152
"2016-12-01 13:05:00 000",424.819,0.964145,2.09560,0.0158337,7331.50,126.144
"2016-12-01 13:15:00 000",425.367,0.947438,2.08988,0.0142499,7316.42,147.927
"2016-12-01 13:25:00 000",425.196,1.02059,2.06833,0.00895126,7374.00,133.466
"2016-12-01 13:35:00 000",424.970,1.02243,2.06885,0.0125818,7392.31,131.936
"2016-12-01 13:45:00 000",425.125,0.974350,2.11167,0.0259505,7398.15,130.753
"2016-12-01 13:55:00 000",425.338,0.977571,2.07925,0.0156639,7327.51,139.309
"2016-12-01 14:05:00 000",425.128,1.00313,2.12004,0.0180010,7279.58,122.393
"2016-12-01 14:15:00 000",425.180,0.921672,2.11750,0.0185629,7318.25,129.404
"2016-12-01 14:25:00 000",424.919,0.986528,2.12758,0.0219587,7361.58,131.432
"2016-12-01 14:35:00 000",424.515,0.928452,2.11762,0.0240181,7391.42,136.202
"2016-12-01 14:45:00 000",425.056,1.00121,2.12907,0.0227093,7439.63,130.975
"2016-12-01 14:55:00 000",424.883,1.03167,2.14530,0.0211420,7484.21,121.801
"2016-12-01 15:05:00 000",425.550,0.916363,2.14143,0.0186811,7564.08,120.304
"2016-12-01 15:15:00 000",425.797,0.949120,2.11826,0.0238365,7541.63,118.819
"2016-12-01 15:25:00 000",426.016,0.936645,2.09434,0.0206482,7574.01,122.566
"2016-12-01 15:35:00 000",425.538,0.981200,2.12112,0.0184295,7617.46,126.668
"2016-12-01 15:45:00 000",425.650,0.961208,2.13509,0.0227739,7619.35,134.156
"2016-12-01 15:55:00 000",426.069,0.988084,2.15169,0.0221351,7578.97,136.833
"2016-12-01 16:05:00 000",426.994,0.998945,2.16623,0.0130590,7673.59,139.890
"2016-12-01 16:15:00 000",427.472,0.997224,2.16429,0.0205296,7605.84,144.428
"2016-12-01 16:25:00 000",427.738,0.963458,2.14180,0.0277133,7621.49,134.437
"2016-12-01 16:35:00 000",428.080,0.936936,2.13942,0.0209177,7592.83,136.781
"2016-12-01 16:45:00 000",428.277,0.996162,2.14789,0.0236060,7628.36,128.992
"2016-12-01 16:55:00 000",429.379,0.975971,2.14270,0.0217656,7579.05,124.315
"2016-12-01 17:05:00 000",429.542,1.06280,2.15835,0.0231700,7609.18,125.179
"2016-12-01 17:15:00 000",429.307,0.931522,2.15664,0.0222858,7666.76,120.184
"2016-12-01 17:25:00 000",429.784,0.934351,2.18536,0.0138045,7695.45,124.485
"2016-12-01 17:35:00 000",430.296,0.984370,2.15454,0.0257367,7602.54,135.270
"2016-12-01 17:45:00 000",430.485,0.982042,2.10958,0.0155922,7660.89,127.808
"2016-12-01 17:55:00 000",430.459,0.932311,2.10699,0.0161400,7603.75,129.284
"2016-12-01 18:05:00 000",430.479,1.03635,2.14776,0.0439347,7641.60,134.863
"2016-12-01 18:15:00 000",430.857,1.08563,2.18177,0.0218104,7708.02,131.975
"2016-12-01 18:25:00 000",430.205,1.02020,2.16087,0.0319382,7731.82,127.448
"2016-12-01 18:35:00 000",429.809,1.02596,2.15064,0.0292111,7659.98,131.312
"2016-12-01 18:45:00 000",430.110,0.974406,2.14046,0.0371407,7736.73,140.322
"2016-12-01 18:55:00 000",429.671,0.998346,2.15568,0.0271403,7786.77,125.994
"2016-12-01 19:05:00 000",429.376,0.996877,2.09236,0.00773985,7804.17,139.047
"2016-12-01 19:15:00 000",429.556,1.01432,2.10317,0.0158687,7829.53,137.383
"2016-12-01 19:25:00 000",429.437,0.933614,2.11029,0.0138449,7897.22,144.964
"2016-12-01 19:35:00 000",430.371,0.976709,2.11452,0.0161932,7911.05,119.370
"2016-12-01 19:45:00 000",430.422,0.946661,2.12003,0.0149510,7955.64,132.666
"2016-12-01 19:55:00 000",430.418,0.958394,2.11212,0.00806192,7869.21,132.039
"2016-12-01 20:05:00 000",430.690,0.956381,2.10405,0.00752590,7946.09,132.542
"2016-12-01 20:15:00 000",430.844,1.24189,2.11168,0.0155790,7956.79,134.998
"2016-12-01 20:25:00 000",429.929,1.01603,2.10024,0.00573846,7910.33,140.948
"2016-12-01 20:35:00 000",430.035,1.04374,2.10032,0.00684351,7915.47,144.941
"2016-12-01 20:45:00 000",430.171,0.985740,2.10783,0.00929521,7974.36,145.138
"2016-12-01 20:55:00 000",429.394,1.04769,2.10942,0.0123506,7988.77,134.057
"2016-12-01 21:05:00 000",428.693,0.965821,2.10327,0.00991211,7998.25,141.639
"2016-12-01 21:15:00 000",428.716,1.00406,2.11436,0.0135931,8030.77,133.742
"2016-12-01 21:25:00 000",428.248,1.01878,2.11405,0.0204264,7980.98,126.835
"2016-12-01 21:35:00 000",427.591,1.02872,2.12502,0.0218898,8008.74,128.960
"2016-12-01 21:45:00 000",427.522,0.975609,2.12369,0.0211813,8030.59,133.045
"2016-12-01 21:55:00 000",427.450,0.985429,2.11902,0.0187377,8065.15,136.674
"2016-12-01 22:05:00 000",426.891,1.08637,2.08749,0.0171185,8159.03,136.528
"2016-12-01 22:15:00 000",426.620,0.960836,2.08775,0.0161578,8128.32,156.683
"2016-12-01 22:25:00 000",426.758,1.03969,2.07096,0.00529924,8251.97,140.212
"2016-12-01 22:35:00 000",426.444,1.05571,2.07807,0.00844273,8223.82,149.194
"2016-12-01 22:45:00 000",426.451,1.05613,2.11840,0.0312524,8173.90,159.792
"2016-12-01 22:55:00 000",427.713,1.24461,2.17442,0.0470939,8178.44,140.350
"2016-12-01 23:05:00 000",425.841,1.05424,2.11415,0.0224266,8230.04,142.371
"2016-12-01 23:15:00 000",426.236,1.04216,2.13573,0.0318013,8298.88,135.628
"2016-12-01 23:25:00 000",426.310,1.29141,2.17106,0.0584205,8225.96,125.600
"2016-12-01 23:35:00 000",425.512,1.07671,2.09891,0.0141620,8289.47,123.927
"2016-12-01 23:45:00 000",425.499,1.06478,2.12397,0.0309737,8181.24,122.884
"2016-12-01 23:55:00 000",424.489,1.04538,2.07537,0.0215308,8296.05,136.687
"2016-12-02 00:05:00 000",424.356,1.09412,2.06343,0.00668655,8302.46,135.038
"2016-12-02 00:15:00 000",424.960,1.36388,2.05831,0.00757932,8359.50,141.349
"2016-12-02 00:25:00 000",424.938,0.956831,2.07033,0.0139699,8356.68,133.498
"2016-12-02 00:35:00 000",425.022,1.16672,2.08046,0.0178852,8425.46,134.012
"2016-12-02 00:45:00 000",425.975,2.82934,2.10030,0.0158068,8475.00,154.407
"2016-12-02 00:55:00 000",430.487,3.48314,2.15855,0.0429461,8500.25,133.768
"2016-12-02 01:05:00 000",433.056,4.40047,2.12656,0.0271268,8444.25,151.426
"2016-12-02 01:15:00 000",433.149,3.93390,2.14767,0.0299020,8432.50,145.535
"2016-12-02 01:25:00 000",428.274,2.67615,2.14531,0.0286072,8433.02,147.974
"2016-12-02 01:35:00 000",431.084,3.60597,2.13478,0.0264319,8580.47,129.513
"2016-12-02 01:45:00 000",434.166,2.40586,2.13321,0.0274293,8556.91,136.558
"2016-12-02 01:55:00 000",432.436,2.75886,2.07334,0.0193768,8548.53,130.257
"2016-12-02 02:05:00 000",425.880,2.49594,2.05638,0.00840909,8542.20,130.100
"2016-12-02 02:15:00 000",422.405,1.07644,2.04279,0.00522009,8552.70,141.571
"2016-12-02 02:25:00 000",422.399,1.01059,2.04309,0.00510756,8547.41,136.865
"2016-12-02 02:35:00 000",425.739,2.57921,2.07260,0.0362353,8515.11,139.435
"2016-12-02 02:45:00 000",429.197,1.70054,2.13761,0.0333748,8556.33,139.591
"2016-12-02 02:55:00 000",431.874,1.98068,2.11587,0.0314204,8634.58,131.587
"2016-12-02 03:05:00 000",430.534,2.69047,2.17736,0.0471552,8717.59,131.441
"2016-12-02 03:15:00 000",427.532,2.59950,2.15973,0.0636411,8677.66,143.244
"2016-12-02 03:25:00 000",423.602,1.68986,2.06710,0.0257307,8679.02,139.439
"2016-12-02 03:35:00 000",423.661,1.51325,2.05263,0.00755216,8720.76,149.403
"2016-12-02 03:45:00 000",423.378,1.25652,2.05028,0.00520139,8716.30,145.001
"2016-12-02 03:55:00 000",423.573,1.39700,2.04722,0.00562759,8735.75,138.426
"2016-12-02 04:05:00 000",423.170,2.01690,2.04711,0.00725995,8701.57,171.303
"2016-12-02 04:15:00 000",422.073,1.31445,2.04602,0.00752015,8715.91,144.431
"2016-12-02 04:25:00 000",422.287,1.34867,2.04626,0.00550702,8698.01,149.508
"2016-12-02 04:35:00 000",422.112,1.28609,2.05081,0.00470199,8633.64,136.949
"2016-12-02 04:45:00 000",421.141,1.09694,2.05106,0.00456465,8793.38,123.128
"2016-12-02 04:55:00 000",421.981,1.07297,2.05522,0.00515477,8802.68,129.298
"2016-12-02 05:05:00 000",421.617,1.14695,2.05691,0.00507062,8709.52,136.467
"2016-12-02 05:15:00 000",422.694,1.07630,2.06398,0.00538167,8650.82,130.376
"2016-12-02 05:25:00 000",423.478,1.07851,2.07026,0.00496400,8711.45,128.245
"2016-12-02 05:35:00 000",425.245,1.88125,2.07966,0.00936537,8650.14,135.490
"2016-12-02 05:45:00 000",423.268,1.27751,2.07082,0.00739718,8576.55,129.040
"2016-12-02 05:55:00 000",421.908,1.48825,2.06581,0.00505529,8538.37,128.576
"2016-12-02 06:05:00 000",421.828,1.28306,2.06700,0.00567173,8543.05,144.107
"2016-12-02 06:15:00 000",423.904,1.14082,2.07938,0.00529174,8508.38,132.012
"2016-12-02 06:25:00 000",423.057,1.64965,2.07084,0.00811549,8607.78,129.101
"2016-12-02 06:35:00 000",421.216,2.11682,2.06242,0.0119959,8532.75,156.818
"2016-12-02 06:45:00 000",421.686,1.49075,2.06502,0.00706897,8542.86,142.640
"2016-12-02 06:55:00 000",420.375,1.53242,2.06325,0.00736485,8499.70,138.686
"2016-12-02 07:05:00 000",422.001,1.90755,2.06828,0.00813934,8527.65,137.559
"2016-12-02 07:15:00 000",422.768,1.30684,2.06984,0.00539298,8443.70,131.776
"2016-12-02 07:25:00 000",422.474,1.39037,2.06500,0.00563526,8490.62,135.631
"2016-12-02 07:35:00 000",421.046,1.48616,2.05735,0.00814777,8565.88,128.565
"2016-12-02 07:45:00 000",418.992,1.59020,2.04635,0.00759764,8449.44,130.549
"2016-12-02 07:55:00 000",416.734,1.68506,2.02936,0.00914675,8423.52,128.077
"2016-12-02 08:05:00 000",416.894,1.19599,2.03100,0.00595220,8405.71,142.165
"2016-12-02 08:15:00 000",417.287,1.37039,2.02868,0.00557126,8488.64,155.150
"2016-12-02 08:25:00 000",417.119,1.13011,2.03499,0.00605168,8508.92,134.224
"2016-12-02 08:35:00 000",417.160,1.09820,2.03653,0.00524982,8479.41,125.315
"2016-12-02 08:45:00 000",416.095,1.34578,2.02325,0.00720733,8564.42,128.246
"2016-12-02 08:55:00 000",416.369,1.57409,2.02213,0.00711619,8592.65,136.378
"2016-12-02 09:05:00 000",414.317,1.16741,2.01887,0.00536494,8434.55,130.444
"2016-12-02 09:15:00 000",414.025,1.26544,2.01741,0.00762420,8455.37,127.066
"2016-12-02 09:25:00 000",413.788,1.18280,2.01447,0.00574564,8515.94,132.637
"2016-12-02 09:35:00 000",413.244,1.51411,2.01053,0.00697682,8674.21,144.984
"2016-12-02 09:45:00 000",412.716,1.32731,2.00890,0.00628996,8641.55,149.983
"2016-12-02 09:55:00 000",411.949,1.27131,2.01036,0.00486081,8689.59,149.126
"2016-12-02 10:05:00 000",411.966,1.12236,2.01013,0.00589416,8711.45,139.682
"2016-12-02 10:15:00 000",410.343,1.10050,2.00992,0.00516177,8680.17,144.989
"2016-12-02 10:25:00 000",410.471,1.25423,2.01244,0.00502245,8711.12,153.419
"2016-12-02 10:35:00 000",411.555,1.05997,2.01598,0.00513182,8742.34,148.295
"2016-12-02 10:45:00 000",411.944,0.980157,2.01742,0.00513152,8712.04,147.841
"2016-12-02 10:55:00 000",412.189,1.05584,2.01862,0.00481459,8732.17,152.504
"2016-12-02 11:05:00 000",411.613,1.15769,2.01713,0.00469745,8637.92,151.376
"2016-12-02 11:15:00 000",411.318,0.907847,2.01709,0.00437340,8669.86,141.185
"2016-12-02 11:25:00 000",410.961,0.989767,2.01596,0.00467744,8754.25,147.521
"2016-12-02 11:35:00 000",411.075,0.899793,2.01867,0.00482658,8811.48,133.810
"2016-12-02 11:45:00 000",411.268,0.946452,2.02496,0.00512341,8790.19,145.138
"2016-12-02 11:55:00 000",410.782,0.963702,2.02713,0.00525977,8807.27,144.203
"2016-12-02 12:05:00 000",409.748,1.02185,2.02696,0.00489276,8847.14,141.211
"2016-12-02 12:15:00 000",409.546,0.913507,2.02861,0.00454054,8880.13,155.870
"2016-12-02 12:25:00 000",409.278,1.08796,2.02496,0.00614288,8861.11,149.207
"2016-12-02 12:35:00 000",408.408,0.910970,2.01841,0.00644617,8869.25,143.917
"2016-12-02 12:45:00 000",405.188,1.74162,1.98238,0.0180507,8824.32,152.230
"2016-12-02 12:55:00 000",404.200,0.923685,1.96278,0.00587311,8784.82,152.104
"2016-12-02 13:05:00 000",406.777,1.75172,1.97279,0.00608577,8757.72,160.148
"2016-12-02 13:15:00 000",409.209,1.07157,1.95570,0.0179201,8671.01,165.550
"2016-12-02 13:25:00 000",405.348,2.04932,1.91616,0.00589477,8639.20,154.520
"2016-12-02 13:35:00 000",403.162,0.953894,1.91045,0.00464539,8627.32,153.249
"2016-12-02 13:45:00 000",402.834,0.925228,1.91330,0.00551700,8635.91,157.540
"2016-12-02 13:55:00 000",402.938,0.863589,1.91943,0.00574214,8654.73,151.607
"2016-12-02 14:05:00 000",403.743,0.864588,1.92644,0.00510835,8613.77,152.168
"2016-12-02 14:15:00 000",405.177,1.49026,1.92684,0.00452163,8482.48,144.649
"2016-12-02 14:25:00 000",410.036,1.78969,1.92713,0.00433290,8510.87,152.026
"2016-12-02 14:35:00 000",408.454,3.60347,1.92105,0.00819824,8407.91,152.613
"2016-12-02 14:45:00 000",405.163,1.67252,1.91251,0.00516343,8453.59,154.584
"2016-12-02 14:55:00 000",404.181,1.16616,1.90961,0.00443076,8500.73,172.166
"2016-12-02 15:05:00 000",404.091,1.01123,1.91285,0.00539917,8406.18,158.952
"2016-12-02 15:15:00 000",404.101,0.985754,1.91289,0.00489708,8354.99,160.747
"2016-12-02 15:25:00 000",405.368,1.18938,1.91524,0.00634120,8174.14,151.811
"2016-12-02 15:35:00 000",405.370,1.06258,1.91219,0.00533167,7823.83,291.785
"2016-12-02 15:45:00 000",405.077,1.74794,1.91620,0.00853979,7170.46,186.477
"2016-12-02 15:55:00 000",406.295,1.15858,1.91799,0.00525580,7007.80,150.824
"2016-12-02 16:05:00 000",407.936,0.980323,1.91464,0.00512139,6995.08,152.698
"2016-12-02 16:15:00 000",407.312,1.13447,1.91567,0.00512077,6906.81,142.199
"2016-12-02 16:25:00 000",408.620,1.19548,1.91694,0.00456675,6761.18,140.218
"2016-12-02 16:35:00 000",409.311,0.849589,1.92182,0.00502354,6706.81,136.229
"2016-12-02 16:45:00 000",410.397,0.875312,1.92455,0.00475304,6769.13,145.903
"2016-12-02 16:55:00 000",411.049,0.870270,1.92865,0.00484211,6944.30,148.323
"2016-12-02 17:05:00 000",410.853,0.841562,1.92686,0.00447898,6955.58,141.167
"2016-12-02 17:15:00 000",410.711,0.952819,1.92979,0.00546209,6977.52,144.435
"2016-12-02 17:25:00 000",410.488,1.29068,1.93115,0.00484359,6963.88,141.168
"2016-12-02 17:35:00 000",410.113,1.06476,1.93459,0.00591411,7014.08,147.769
"2016-12-02 17:45:00 000",411.753,1.52130,1.95266,0.0144525,7128.12,157.254
"2016-12-02 17:55:00 000",414.580,1.04124,2.01771,0.0186584,7152.67,161.512
"2016-12-02 18:05:00 000",413.109,1.11776,1.99416,0.00788922,7272.45,152.123
"2016-12-02 18:15:00 000",413.477,1.04014,1.98998,0.00695587,7254.49,158.311
"2016-12-02 18:25:00 000",413.561,1.01807,2.00105,0.00587907,7308.58,149.949
"2016-12-02 18:35:00 000",414.151,0.976758,1.99902,0.00586909,7270.60,147.314
"2016-12-02 18:45:00 000",412.240,1.82151,2.00147,0.00954223,7435.08,158.341
"2016-12-02 18:55:00 000",412.387,1.47283,2.00030,0.00791145,7473.90,148.046
"2016-12-02 19:05:00 000",412.785,1.47999,1.99612,0.00595534,7382.79,159.307
"2016-12-02 19:15:00 000",413.988,0.942205,1.99629,0.00425203,7484.32,139.797
"2016-12-02 19:25:00 000",412.755,1.01879,1.99800,0.00414871,7676.95,123.936
"2016-12-02 19:35:00 000",412.880,1.03848,2.00389,0.00874304,7294.79,195.451
"2016-12-02 19:45:00 000",414.740,1.00777,2.00899,0.00490725,7079.07,126.314
"2016-12-02 19:55:00 000",414.929,0.911403,2.00658,0.00446061,6956.71,138.287
"2016-12-02 20:05:00 000",414.319,0.900661,2.00285,0.00739640,6987.46,135.931
"2016-12-02 20:15:00 000",414.534,0.901414,1.99841,0.00575042,6908.12,162.363
"2016-12-02 20:25:00 000",414.946,0.934451,1.98911,0.00980033,6861.42,153.757
"2016-12-02 20:35:00 000",413.821,1.32482,1.97000,0.0120203,7173.29,156.749
"2016-12-02 20:45:00 000",414.449,1.07466,1.97315,0.00769507,6962.37,155.587
"2016-12-02 20:55:00 000",413.822,0.951871,1.96299,0.00591764,6713.14,183.325
"2016-12-02 21:05:00 000",413.083,1.14665,1.95319,0.00624317,6443.54,191.338
"2016-12-02 21:15:00 000",413.496,1.45527,1.95221,0.00663927,6259.11,142.714
"2016-12-02 21:25:00 000",414.115,1.81616,1.95076,0.00586758,6188.88,126.898
"2016-12-02 21:35:00 000",408.813,2.16138,1.94059,0.00490451,6000.71,169.884
"2016-12-02 21:45:00 000",413.326,2.14071,1.93694,0.00529604,5792.85,149.419
"2016-12-02 21:55:00 000",415.699,2.08017,1.94705,0.00531639,5724.64,129.335
"2016-12-02 22:05:00 000",417.221,1.31142,1.94907,0.00633691,5769.01,121.741
"2016-12-02 22:15:00 000",415.856,1.84109,1.94867,0.00606716,5900.86,134.730
"2016-12-02 22:25:00 000",415.315,1.56835,1.94962,0.00506659,5958.43,127.507
"2016-12-02 22:35:00 000",413.047,0.958442,1.94984,0.00441342,6088.60,129.299
"2016-12-02 22:45:00 000",412.492,1.38544,1.95026,0.00519181,6112.86,130.961
"2016-12-02 22:55:00 000",414.594,1.20732,1.95447,0.00477264,6202.14,130.528
"2016-12-02 23:05:00 000",411.134,1.38495,1.94979,0.00497716,6221.26,136.966
"2016-12-02 23:15:00 000",411.283,1.23495,1.95396,0.00539001,6179.11,119.816
"2016-12-02 23:25:00 000",410.615,1.06573,1.94537,0.00498494,6123.12,143.947
"2016-12-02 23:35:00 000",408.460,1.06987,1.94252,0.00486911,6093.20,112.475
"2016-12-02 23:45:00 000",409.420,1.05690,1.94453,0.00465653,5982.97,110.724
"2016-12-02 23:55:00 000",409.982,1.66579,1.94468,0.00504512,5943.92,108.689
"2016-12-03 00:05:00 000",411.247,1.31702,1.94364,0.00519558,5930.35,122.501
"2016-12-03 00:15:00 000",415.658,2.58487,1.95676,0.0101997,5855.00,135.971
"2016-12-03 00:25:00 000",420.472,1.10798,1.97686,0.00619606,5975.76,125.028
"2016-12-03 00:35:00 000",422.055,2.73504,1.98131,0.00846598,6009.43,133.410
"2016-12-03 00:45:00 000",423.184,1.39373,1.98563,0.00555037,6167.51,157.420
"2016-12-03 00:55:00 000",420.791,2.87136,1.98150,0.00978080,6333.34,128.987
"2016-12-03 01:05:00 000",419.355,2.67605,1.96916,0.00546645,6427.25,139.475
"2016-12-03 01:15:00 000",424.851,2.93785,1.97180,0.00652443,6394.66,150.460
"2016-12-03 01:25:00 000",423.333,5.51884,1.95683,0.00762060,6516.37,119.648
"2016-12-03 01:35:00 000",429.227,1.95890,1.95956,0.00613240,6421.20,129.595
"2016-12-03 01:45:00 000",428.671,1.70121,1.96798,0.00776619,6252.75,127.911
"2016-12-03 01:55:00 000",430.566,1.54421,1.99336,0.0140908,6193.86,128.305
"2016-12-03 02:05:00 000",437.407,2.24686,2.03356,0.00829528,6127.99,128.892
"2016-12-03 02:15:00 000",437.213,1.50244,2.02931,0.00642562,6160.89,127.208